Location: Forest
(37.3641°N, 79.2902°W)
Time: 02:17:26
(UTC+00:00)

ACS3 Solar Sail - Pass Details

Date: 07 October 2024
Orbit: 961 x 1022 km, 97.5° (Epoch: 03 November)

Event Time Altitude Azimuth Distance (km) Brightness Sun altitude
Exits shadow 01:56:37 48° 273° (W) 1,312 2.6 -36.7°
Drops below altitude 10° 02:02:27 10° 337° (NNW) 2,834 4.7 -37.8°
Sets 02:05:05 0° 343° (NNW) 3,793 5.4 -38.3°
